[Iaude] MPEC T246: 2023 TY10 [a=1.64,e=0.55,i=0.1,H=28.7]

mpec at marsden.cfa.harvard.edu mpec at marsden.cfa.harvard.edu
Sat Oct 14 16:13:59 EDT 2023


M.P.E.C. 2023-T246                             Issued 2023 October 14, 20:12 UT

     The Minor Planet Electronic Circulars contain information on unusual
         minor planets, routine data on comets and natural satellites,
         and occasional editorial announcements.  They are published
    on behalf of Division F of the International Astronomical Union by the
          Minor Planet Center, Smithsonian Astrophysical Observatory,
                          Cambridge, MA 02138, U.S.A.
			  
             Prepared using the Tamkin Foundation Computer Network

                              MPC at CFA.HARVARD.EDU
            URL https://www.minorplanetcenter.net/    ISSN 1523-6714

                                   2023 TY10                                    


Observations:
     K23T10Y*1C2023 10 12.25509200 55 17.094+09 37 28.20         21.19GVET246G96
     K23T10Y 1C2023 10 12.26029200 55 19.052+09 37 25.18         21.60GVET246G96
     K23T10Y 1C2023 10 12.26548900 55 21.036+09 37 22.30         21.37GVET246G96
     K23T10Y 1C2023 10 12.27068300 55 22.904+09 37 19.13         21.51GVET246G96
     K23T10Y KC2023 10 12.42019400 56 16.739+09 35 38.62         22.06GVET246I52
     K23T10Y KC2023 10 12.42560800 56 18.726+09 35 34.44         21.32GVET246I52
     K23T10Y KC2023 10 12.43101400 56 20.742+09 35 29.40         21.83GVET246I52
     K23T10Y KC2023 10 13.21203801 01 12.705+09 29 14.10         21.7 GVET246H01
     K23T10Y  C2023 10 13.22170101 01 14.843+09 29 10.85         21.5 GVET246H01
     K23T10Y  C2023 10 13.22817801 01 16.251+09 29 08.70         22.2 GVET246H01
     K23T10Y  C2023 10 13.23621201 01 17.988+09 29 05.60         21.5 GVET246H01
     K23T10Y KC2023 10 14.19794101 05 09.792+09 23 30.42         22.9 GVET246H01
     K23T10Y KC2023 10 14.20617801 05 10.972+09 23 28.55         21.9 GVET246H01
     K23T10Y KC2023 10 14.21200801 05 11.782+09 23 27.33         21.9 GVET246H01
     K23T10Y KC2023 10 14.21863301 05 12.692+09 23 25.83         22.2 GVET246H01

Observer details:
G96 Mt. Lemmon Survey.  Observer D. Rankin.  Measurers E. C. Beshore, D. Fay,
    J. B. Fazekas, D. C. Fuls, A. R. Gibbs, A. D. Grauer, H. Groeller, J. K.
    Hogan, R. A. Kowalski, S. M. Larson, G. J. Leonard, D. Rankin, R. L.
    Seaman, F. C. Shelly, K. W. Wierzchos.  1.5-m reflector + 10K CCD.
H01 Magdalena Ridge Observatory, Socorro.  Observers W. H. Ryan, E. V. Ryan.
    Measurer W. H. Ryan.  2.4-m f/8.9 Ritchey-Chretien + CCD.
I52 Steward Observatory, Mt. Lemmon Station.  Observer J. B. Fazekas.
    Measurers E. C. Beshore, D. Fay, J. B. Fazekas, D. C. Fuls, A. R. Gibbs,
    A. D. Grauer, H. Groeller, J. K. Hogan, R. A. Kowalski, S. M. Larson, G.
    J. Leonard, D. Rankin, R. L. Seaman, F. C. Shelly, K. W. Wierzchos.  1.0-m
    prime focus + CCD.

Orbital elements:
2023 TY10                                                Earth MOID = 0.0019 AU
Epoch 2023 Sept. 13.0 TT = JDT 2460200.5                Veres                   
M  10.48099              (2000.0)            P               Q                  
n   0.46844692     Peri.  330.48110     +0.50021886     +0.86589801             
a   1.6419596      Node   329.53333     -0.79393694     +0.45803977             
e   0.5497112      Incl.    0.14880     -0.34560849     +0.20104778             
P   2.10           H   28.72          G   0.15           U   8                  
Residuals in seconds of arc
231012 G96  0.8-  0.0     231012 I52  0.1-  0.3+    231013 H01  0.2-  0.1-
231012 G96  0.3-  0.0     231012 I52  0.2+  0.7-    231014 H01  0.0   0.0
231012 G96  0.7+  0.1+    231013 H01  0.1+  0.0     231014 H01  0.1+  0.1-
231012 G96  0.1+  0.0     231013 H01  0.1+  0.0     231014 H01  0.0   0.0
231012 I52  0.1-  0.5+    231013 H01  0.0   0.1+    231014 H01  0.2-  0.1+

Ephemeris:
2023 TY10                a,e,i = 1.64, 0.55, 0                   q = 0.7394
Date    TT    R. A. (2000) Decl.     Delta      r    Elong.  Phase     V
2023 09 14    13 18 32.2 -08 09 54   0.2330  0.8143    30.6   141.0    32.1
...
2023 09 29    13 31 53.4 -08 39 21   0.08732 0.9199    19.2   159.0    33.9
...
2023 10 07    14 21 19.5 -07 05 27   0.01544 0.9855    23.2   156.5    29.5
...
2023 10 13    01 00 02.3 +09 32 21   0.03902 1.0370   176.7     3.2    22.1
2023 10 14    01 04 24.0 +09 25 49   0.04799 1.0456   177.1     2.7    22.5
2023 10 15    01 07 23.5 +09 21 09   0.05699 1.0544   177.2     2.7    22.9
...
2023 10 21    01 15 16.6 +09 08 39   0.1120  1.1071   173.7     5.6    24.6
...
2023 10 29    01 19 15.7 +09 06 40   0.1886  1.1778   166.7    11.2    26.1
...
2023 11 13    01 25 29.7 +09 25 18   0.3472  1.3092   153.3    19.9    28.0

M. P. C. Staff               (C) Copyright 2023 MPC           M.P.E.C. 2023-T246





More information about the Iaude mailing list